Regional Weather Roundup
Issued by NWS

Current Version | Previous Version | Text Only | Print | Product List | Glossary On
Versions: 1 2 3 4 5 6 7 8 9 10 11 12 13 14 15 16 17 18 19 20 21 22 23 24 25 26 27 28 29 30 31 32 33 34 35 36 37 38 39 40 41 42 43 44 45 46 47 48 49 50
000
ASUS45 KABQ 201101
RWRNM
NEW MEXICO REGIONAL WEATHER ROUNDUP
NATIONAL WEATHER SERVICE ALBUQUERQUE NM
400 AM MST MON FEB 20 2017

NOTE: "FAIR" MEANS FEW OR NO CLOUDS BELOW 12,000 FEET AGL WITH NO
       SIGNIFICANT WEATHER OR OBSTRUCTIONS TO VISION.

      THIS PRODUCT IS RELEASED AS TWO VERSIONS.  ONE VERSION NEAR
      THE TOP OF THE HOUR CONTAINING PRELIMINARY DATA FROM ALBUQUERQUE
      AND OTHER STATIONS.  A FINAL VERSION WITH ADDITIONAL DATA IS
      ISSUED ABOUT 10 MINUTES AFTER THE HOUR.

NMZ501-503-504-510>518-201200-
NORTHWEST PLATEAU/NORTHCENTRAL MOUNTAINS

CITY           SKY/WX    TMP DP  RH WIND       PRES   REMARKS
FARMINGTON     FAIR      36  33  89 W12       30.05R WCI  28
LOS ALAMOS     MOCLDY    34  29  82 CALM      30.04R
SANTA FE       MOCLDY    34  30  85 NW5       30.02R WCI  30
TAOS           FAIR      28  19  69 CALM      30.03R
ANGEL FIRE     FAIR      29  24  81 W17G24    29.98S WCI  17

$$
NMZ402-403-502-505>509-201200-
WESTCENTRAL MOUNTAINS/SOUTHWEST MOUNTAINS

CITY           SKY/WX    TMP DP  RH WIND       PRES   REMARKS
GALLUP         CLOUDY    35  34  96 SW6       30.13R WCI  30
GRANTS         CLOUDY    35  30  79 N9        30.10S WCI  28
SILVER CITY    FAIR      37  34  90 W7        30.12S WCI  31

$$
NMZ407-409-411-412-201200-
SOUTHERN DESERTS

CITY           SKY/WX    TMP DP  RH WIND       PRES   REMARKS
DEMING         FAIR      42  38  85 SW5       30.11R
LAS CRUCES     FAIR      41  37  84 W16       30.08S
HOLLOMAN AFB   FAIR      37  30  75 NE6       30.08R WCI  33
ALAMOGORDO     FAIR      41  30  65 NE10      30.05R
T OR C         FAIR      44  30  57 NW12      30.05S

$$
NMZ519>523-201200-
CENTRAL VALLEYS/CENTRAL HIGHLANDS

CITY           SKY/WX    TMP DP  RH WIND       PRES   REMARKS
ALBUQUERQUE    CLOUDY    42  33  70 W6        30.05R
DOUBLE EAGLE   MOCLDY    35  31  85 CALM      30.06R
MORIARTY ARPT  CLOUDY    40  33  77 W14       30.03R WCI  32
CLINES CORNERS FAIR      33  29  85 NW31G43   29.95R WCI  19
BELEN          FAIR      37  31  79 W9        30.05F WCI  30
SOCORRO        FAIR      44  30  59 NW9G20    30.05R

$$
NMZ524>526-539-540-201200-
SOUTHCENTRAL MOUNTAINS

CITY           SKY/WX    TMP DP  RH WIND       PRES   REMARKS
RUIDOSO        NOT AVBL

$$
NMZ527>531-201200-
NORTHEAST HIGHLANDS/NORTHEAST PLAINS

CITY           SKY/WX    TMP DP  RH WIND       PRES   REMARKS
LAS VEGAS      FAIR      36  21  54 N7        29.92R WCI  30
RATON          FAIR      25  16  68 E6        29.88R WCI  18
CLAYTON        FAIR      44  26  49 N16       29.82R

$$
NMZ532>537-201200-
EASTCENTRAL PLAINS

CITY           SKY/WX    TMP DP  RH WIND       PRES   REMARKS
TUCUMCARI      FAIR      43  32  65 W13       29.83R
CANNON AFB     FAIR      36  36 100 W10       29.88S WCI  28
CLOVIS AIRPORT FAIR      36  28  75 SW12      29.87S WCI  27

$$
NMZ028-029-538-201200-
SOUTHEAST PLAINS

CITY           SKY/WX    TMP DP  RH WIND       PRES   REMARKS
ROSWELL        FAIR      33  26  75 CALM        N/A
ARTESIA        FAIR      41  32  70 SW10      29.99R
CARLSBAD       FAIR      47  33  58 CALM      29.97S
HOBBS          FAIR      41  28  60 W13       29.96S


$$



USA.gov is the U.S. government's official web portal to all federal, state and local government web resources and services.